Location: Dal�� Lhota
(48.7500°N, 14.0167°E)
Time: 03:05:22
(UTC+00:00)

S-56A Canister/Altair - Pass Details

Date: 09 August 2021
Orbit: 632 x 2500 km, 38.9° (Epoch: 19 September)

Event Time Altitude Azimuth Distance (km) Brightness Sun altitude
Rises 19:02:52 0° 278° (W) 6,108 13.6 -5.7°
Reaches altitude 10° 19:10:01 10° 257° (WSW) 5,165 12.4 -6.7°
Maximum altitude 19:15:53 13° 233° (SW) 4,813 11.8 -7.5°
Drops below altitude 10° 19:21:35 10° 209° (SSW) 4,951 11.6 -8.3°
Sets 19:28:12 0° 186° (S) 5,658 11.7 -9.2°
